This is the latest recevied weather packets stored in our database for station/object SV6DBG-10. If no packets are shown the sender has not sent any weather packets the latest 10 day(s).
| Time | Temp. | Humidity | Pressure | Rain* | Wind** | Luminosity | Snow |
|---|---|---|---|---|---|---|---|
| 1777591324 | 11.11° C | 80% | 1019.2 hPa | - | - | - | - |
| 1777590424 | 11.67° C | 80% | 1019.2 hPa | - | - | - | - |
| 1777589524 | 12.22° C | 81% | 1019.2 hPa | - | - | - | - |
| 1777588624 | 12.22° C | 82% | 1019.1 hPa | - | - | - | - |
| 1777587724 | 11.67° C | 82% | 1019.1 hPa | - | - | - | - |
| 1777586823 | 11.67° C | 82% | 1019.2 hPa | - | - | - | - |
| 1777585923 | 12.22° C | 82% | 1019.2 hPa | - | - | - | - |
| 1777585023 | 12.22° C | 83% | 1019.2 hPa | - | - | - | - |
| 1777584123 | 11.67° C | 83% | 1019.2 hPa | - | - | - | - |
| 1777583223 | 11.67° C | 82% | 1019.1 hPa | - | - | - | - |
| 1777582323 | 11.67° C | 82% | 1019 hPa | - | - | - | - |
| 1777581422 | 12.22° C | 82% | 1019.1 hPa | - | - | - | - |
| 1777580522 | 11.67° C | 82% | 1019.3 hPa | - | - | - | - |
| 1777579622 | 12.22° C | 82% | 1019.2 hPa | - | - | - | - |
| 1777578722 | 12.22° C | 81% | 1019.2 hPa | - | - | - | - |
| 1777577822 | 12.22° C | 81% | 1019.1 hPa | - | - | - | - |
| 1777576922 | 12.78° C | 80% | 1019 hPa | - | - | - | - |
| 1777576022 | 12.22° C | 81% | 1019 hPa | - | - | - | - |
| 1777575121 | 12.78° C | 80% | 1018.9 hPa | - | - | - | - |
| 1777574221 | 12.22° C | 79% | 1018.9 hPa | - | - | - | - |
| 1777573321 | 12.78° C | 79% | 1018.7 hPa | - | - | - | - |
| 1777572421 | 12.22° C | 78% | 1018.7 hPa | - | - | - | - |
| 1777571521 | 12.22° C | 77% | 1018.3 hPa | - | - | - | - |
| 1777570621 | 12.22° C | 77% | 1018.6 hPa | - | - | - | - |
| 1777569720 | 12.78° C | 78% | 1018.5 hPa | - | - | - | - |
* Rain since midnight (hover to see other rain measurements)
** Current wind speed in m/s (hover to see current wind gust speed)